Covington, KY

8:23 AM EST on December 06, 2019 (GMT -0500)
Cincinnati-Northern KY International

Weather History for KCVG - October, 2019

Change the Weather History Date:

Friday, October 25, 2019

  Actual Average Record
Temperature  
Mean Temperature 56 °F 53 °F  
Max Temperature 60 °F 63 °F 82 °F (1963)
Min Temperature 51 °F 43 °F 25 °F (1960)
Degree Days  
Heating Degree Days 10 12  
Month to date heating degree days 151 223  
Since 1 July heating degree days 151 281  
Cooling Degree Days 0 0  
Month to date cooling degree days 55 16  
Year to date cooling degree days 1497 1121  
Growing Degree Days 6 (Base 50)    
Moisture  
Dew Point 45 °F    
Average Humidity 68    
Maximum Humidity 77    
Minimum Humidity 60    
Precipitation  
Precipitation 0.00 in 0.10 in 1.67 in (2002)
Month to date precipitation 1.15 2.65  
Year to date precipitation 43.57 35.07  
Snow  
Snow 0.00 in 0.10 in 1.70 in (1962)
Month to date snowfall 0.0 0.3  
Since 1 July snowfall 0.0 0.3  
Since 1 September snowfall 0.0 0.3  
Snow Depth 0.00 in    
Sea Level Pressure  
Sea Level Pressure 30.24 in    
Wind  
Wind Speed 5 mph ()    
Max Wind Speed 9 mph    
Max Gust Speed 12 mph    
Visibility 10.0 miles    
Events      
T = Trace of Precipitation, MM = Missing Value Source: Averaged Metar Reports

Daily Weather History Graph

Daily Weather History Graph

Search for Another Location

Airport or City:

Astronomy

Oct. 25, 2019 Rise Set
Actual Time 7:58 AM EDT 6:46 PM EDT
Civil Twilight 7:30 AM EDT 7:13 PM EDT
Nautical Twilight 6:59 AM EDT 7:45 PM EDT
Astronomical Twilight 6:28 AM EDT 8:16 PM EDT
Moon 4:42 AM EDT (10/25) 5:46 PM EDT (10/25)
Length of Visible Light 11h 42m
Length of Day
10h 48m
Waning Crescent, 9% of the Moon is Illuminated
Oct 25
Waning Crescent
Oct 27
New
Nov 4
First Quarter
Nov 12
Full
Nov 19
Last Quarter

Hourly Weather History & Observations

Time (EDT) Temp. Dew Point Humidity Pressure Visibility Wind Dir Wind Speed Gust Speed Precip Events Conditions
12:52 AM 53.1 °F 44.1 °F 71% 30.26 in 10.0 mi North 6.9 mph - N/A   Overcast
2:52 AM 53.1 °F 44.1 °F 71% 30.24 in 10.0 mi NNE 5.8 mph - N/A   Overcast
3:52 AM 53.1 °F 44.1 °F 71% 30.25 in 10.0 mi ENE 6.9 mph - N/A   Overcast
4:52 AM 52.0 °F 44.1 °F 74% 30.25 in 10.0 mi North 6.9 mph - N/A   Overcast
5:52 AM 51.1 °F 44.1 °F 77% 30.26 in 10.0 mi North 5.8 mph - N/A   Overcast
6:52 AM 53.1 °F 43.0 °F 69% 30.26 in 10.0 mi North 5.8 mph - N/A   Overcast
7:52 AM 51.1 °F 43.0 °F 74% 30.27 in 10.0 mi North 3.5 mph - N/A   Overcast
8:52 AM 52.0 °F 43.0 °F 71% 30.28 in 10.0 mi NE 5.8 mph - N/A   Overcast
9:52 AM 53.1 °F 44.1 °F 71% 30.27 in 10.0 mi ENE 6.9 mph - N/A   Overcast
10:52 AM 54.0 °F 44.1 °F 69% 30.28 in 10.0 mi East 3.5 mph - N/A   Overcast
11:52 AM 55.9 °F 44.1 °F 64% 30.28 in 10.0 mi Calm Calm - N/A   Overcast
12:52 PM 57.0 °F 45.0 °F 64% 30.26 in 10.0 mi North 3.5 mph - N/A   Overcast
1:52 PM 57.9 °F 46.0 °F 65% 30.24 in 10.0 mi NW 3.5 mph - N/A   Overcast
2:52 PM 60.1 °F 46.0 °F 60% 30.22 in 10.0 mi NNW 4.6 mph - N/A   Overcast
3:52 PM 60.1 °F 46.0 °F 60% 30.20 in 10.0 mi Calm Calm - N/A   Overcast
4:52 PM 60.1 °F 46.9 °F 62% 30.20 in 10.0 mi North 5.8 mph - N/A   Overcast
5:52 PM 59.0 °F 46.0 °F 62% 30.20 in 10.0 mi NNE 3.5 mph - N/A   Overcast
6:52 PM 57.0 °F 46.0 °F 67% 30.21 in 10.0 mi NNW 5.8 mph - N/A   Overcast
7:52 PM 55.9 °F 46.0 °F 69% 30.22 in 10.0 mi NNE 3.5 mph - N/A   Overcast
8:52 PM 55.9 °F 46.0 °F 69% 30.21 in 10.0 mi North 8.1 mph - N/A   Overcast
9:52 PM 55.9 °F 46.0 °F 69% 30.19 in 10.0 mi NE 5.8 mph - N/A   Overcast
10:52 PM 55.0 °F 46.0 °F 72% 30.18 in 10.0 mi ENE 5.8 mph - N/A   Overcast
11:52 PM 55.0 °F 46.9 °F 74% 30.18 in 10.0 mi NE 5.8 mph - N/A   Overcast